Location: Dumpton Point
(51.3500°N, 1.4433°E)
Time: 08:49:39
(UTC+00:00)

SL-16 R/B - Pass Details

Date: 09 April 2020
Orbit: 842 x 846 km, 71.0° (Epoch: 01 June)

Event Time Altitude Azimuth Distance (km) Brightness Sun altitude
Rises 21:27:24 0° 331° (NNW) 3,416 6.8 -22.6°
Reaches altitude 10° 21:30:10 10° 342° (NNW) 2,478 5.6 -22.9°
Maximum altitude 21:35:10 30° 43° (NE) 1,470 3.5 -23.4°
Enters shadow 21:36:59 25° 75° (ENE) 1,641 3.5 -23.6°
